SCP
0 0 0 0 0 0 0 0 -0 0 0 0 0 0 0 -0 -0 -0 -0 -0 -0 -0 -0 0 -0 0 0 0 -0 -0 0 -0
0 0 0 0 0 0 0 0 -0 0 0 -0 0 -0 0 -0 -0 -0 -1 -0 -1 -0 -0 0 0 0 0 0 -0 -0 0 0
0 -0 0 0 0 0 0 0 0 -0 0 0 0 0 0 0 -0 -0 -0 -0 -1 -0 0 0 0 0 0 0 -0 -0 0 0
0 0 0 0 0 0 0 0 0 0 -0 0 0 0 -0 0 0 -0 -0 -0 -0 -0 0 0 0 0 0 0 -0 -0 0 0
-0 -0 0 0 0 0 0 0 0 0 0 0 0 0 0 0 0 -0 -0 -0 -0 -0 -0 1 0 0 0 0 -0 -0 0 0
0 0 0 0 0 0 0 0 0 0 0 0 0 0 0 0 0 -0 -0 -0 -0 0 0 0 0 0 0 0 0 -0 -0 0
0 0 0 0 0 0 0 0 0 -0 0 0 0 0 0 0 0 -0 0 -0 -0 0 0 0 0 0 0 0 0 -0 -0 0
0 -0 0 0 0 0 0 0 0 -0 0 0 0 0 0 1 0 0 -0 -0 0 0 0 0 1 0 0 0 0 0 -0 -0
-0 -0 0 -0 0 0 0 0 0 0 0 0 0 0 0 0 0 0 0 -0 0 1 0 0 1 1 0 0 0 0 0 0
-0 0 0 -0 0 0 0 0 0 0 0 0 0 0 0 0 -0 0 0 0 0 1 0 0 1 1 1 1 0 0 0 0
0 0 0 -0 0 0 0 0 0 0 0 0 0 0 0 0 0 -0 0 0 0 0 0 1 0 1 1 1 0 0 0 -0
0 0 0 -0 0 0 -0 0 0 0 0 0 0 0 -0 -0 -0 0 0 0 0 0 0 0 0 1 1 0 1 0 0 -0
0 0 0 0 -0 -0 0 0 0 0 0 0 0 0 0 0 0 0 0 -0 -0 -0 0 0 0 0 0 1 0 0 0 0
0 0 -0 0 -0 -0 0 0 0 0 1 1 0 0 0 0 0 0 0 -0 0 0 -0 -0 0 0 0 0 -0 0 0 0
0 0 0 0 -0 0 0 0 0 0 1 2 2 0 1 1 0 0 1 0 1 0 0 0 0 0 0 -0 0 0 0 0
0 0 -0 0 0 0 0 0 0 1 1 3 3 4 3 1 1 1 2 0 1 1 1 2 1 1 0 1 2 1 1 1
0 0 0 0 0 0 0 -0 -0 1 1 2 3 6 10 4 3 1 -1 -0 0 1 2 1 2 1 1 2 3 2 1 2
0 0 0 0 0 0 0 -0 -0 -0 0 1 1 2 5 6 7 5 1 -0 -0 0 0 1 1 1 1 3 3 3 3 3
0 0 0 0 0 0 0 0 -0 -0 -0 0 0 1 3 3 4 5 4 3 1 1 1 1 1 2 3 5 5 4 4 5
Wind_Speed_500mb
39 40 30 39 25 22 16 30 9 8 4 10 6 19 37 34 44 70 91 95 91 104 93 85 102 86 83 74 65 62 67 65
46 32 44 22 21 16 13 22 17 5 10 11 21 30 23 12 39 50 94 92 94 105 101 94 101 95 87 80 71 64 63 67
23 21 32 30 25 20 8 12 12 9 12 16 24 20 22 24 49 73 95 97 94 104 100 101 98 94 94 85 76 69 63 64
42 39 40 38 21 25 18 16 9 9 11 7 19 6 8 15 30 91 94 96 97 91 96 102 100 93 90 85 80 74 67 63
15 21 32 19 39 20 11 7 18 7 10 5 12 12 7 9 60 53 84 87 91 89 101 101 102 96 92 88 83 77 71 67
12 15 11 16 36 33 22 17 15 20 10 14 22 17 13 30 61 85 81 90 93 93 102 104 98 90 92 92 86 80 72 67
31 34 30 31 31 43 26 28 22 25 17 21 20 29 20 7 13 62 73 86 91 93 101 102 95 91 91 89 89 84 77 73
31 25 27 35 35 32 42 33 16 23 6 12 21 8 22 37 26 35 75 86 97 95 96 103 98 94 94 91 90 86 82 77
11 15 19 17 15 21 24 33 15 25 19 25 12 17 35 59 68 43 74 87 96 98 96 99 98 92 95 94 88 88 83 78
10 15 8 15 17 23 24 32 25 11 30 36 35 49 68 82 77 28 65 79 91 94 91 93 93 90 90 91 90 89 86 81
7 9 21 31 18 13 15 14 12 20 21 18 35 28 7 26 30 38 73 69 80 90 87 88 91 91 89 89 90 89 89 87
9 9 9 14 24 46 15 5 38 38 15 27 37 13 22 33 65 27 64 68 75 81 82 83 85 85 89 88 90 94 93 91
18 10 17 27 33 38 9 9 36 41 45 29 11 22 55 45 31 36 19 55 76 81 85 81 79 80 84 90 96 95 94 92
10 8 14 41 22 13 12 28 39 49 59 53 26 21 35 62 25 11 24 35 78 83 86 80 80 77 79 84 84 87 88 91
11 10 9 45 36 36 38 35 48 57 58 57 51 46 18 36 24 35 22 30 45 88 83 85 82 79 79 67 73 82 86 88
17 21 18 41 46 44 37 37 40 43 50 53 46 44 35 12 31 25 12 19 17 8 84 86 83 80 73 68 72 76 82 85
6 31 35 56 53 41 37 29 37 30 35 45 48 42 46 30 12 20 20 20 18 15 9 57 74 70 67 79 81 81 84 86
5 31 21 39 49 59 57 31 35 35 37 38 39 36 35 34 22 13 19 34 31 24 22 17 22 52 50 55 64 73 77 79
16 49 48 39 40 52 63 31 39 36 36 39 41 42 31 26 21 19 20 22 22 32 36 32 30 38 48 59 60 63 67 72
Wind_Direction_500mb
238 241 233 238 243 220 221 258 280 124 350 4 204 166 202 215 203 187 192 190 191 189 197 196 197 203 208 211 214 213 212 209
244 236 243 223 222 246 233 237 252 209 188 197 195 187 226 227 246 222 189 188 188 189 195 197 196 201 207 215 217 217 214 216
270 258 230 237 239 229 215 177 215 175 253 206 189 226 179 213 248 208 182 185 183 188 193 198 194 198 205 210 214 218 219 217
249 259 272 233 226 214 222 273 236 205 256 121 146 205 267 134 38 192 184 181 182 181 182 185 189 192 199 205 212 219 221 220
294 275 260 262 227 220 201 195 246 183 240 190 111 65 49 42 336 212 181 174 177 179 178 183 189 194 197 204 209 217 221 221
272 271 285 303 218 220 204 230 247 252 217 213 147 125 14 7 323 184 176 170 174 179 182 187 195 198 200 203 211 217 218 218
283 281 300 290 291 209 217 221 223 251 170 214 179 150 153 78 316 172 165 169 176 180 184 190 195 197 199 203 206 212 217 219
299 295 297 298 297 304 217 229 239 249 58 131 108 164 104 55 317 219 167 172 180 185 188 190 194 197 200 202 204 210 216 221
276 350 321 297 258 277 277 213 203 241 169 161 170 145 111 71 271 264 174 177 183 189 193 195 196 198 201 203 206 211 218 222
297 348 265 254 305 288 290 219 217 244 152 172 170 174 171 163 208 257 188 184 189 194 195 200 201 203 204 207 208 212 219 224
307 299 304 303 293 321 335 338 279 205 163 171 147 120 185 204 264 274 210 195 197 201 201 202 205 205 206 208 210 214 220 224
335 319 271 272 320 325 354 72 356 9 185 150 156 145 169 208 244 226 205 200 200 204 205 207 209 209 208 210 214 217 221 225
264 255 282 332 344 322 48 322 337 6 13 165 157 186 186 170 155 328 288 225 207 206 209 212 212 210 211 214 220 223 223 225
243 249 269 350 27 58 312 1 4 13 17 23 40 188 159 155 178 306 19 270 208 205 212 214 213 212 214 218 226 224 225 228
209 213 59 45 51 31 12 7 24 17 13 19 30 39 102 121 144 174 327 352 213 207 212 216 214 215 217 229 226 227 227 228
232 6 35 32 28 20 6 21 22 17 10 11 7 22 32 90 132 177 263 315 357 269 216 214 219 221 232 237 230 230 233 234
200 18 343 10 2 360 348 30 32 11 11 13 8 19 27 7 27 233 334 328 323 328 31 225 225 230 237 240 239 237 237 238
327 343 331 320 356 6 5 43 50 25 7 4 2 357 8 27 38 357 315 324 322 301 288 274 265 243 242 243 242 243 243 242
296 317 319 327 4 12 1 64 52 35 27 6 359 357 349 354 7 13 328 319 313 315 308 288 290 265 254 247 243 242 244 246
Wind_Speed_850mb
39 40 30 39 25 22 16 30 9 8 4 10 6 19 37 34 44 70 91 95 91 104 93 85 102 86 83 74 65 62 67 65
46 32 44 22 21 16 13 22 17 5 10 11 21 30 23 12 39 50 94 92 94 105 101 94 101 95 87 80 71 64 63 67
23 21 32 30 25 20 8 12 12 9 12 16 24 20 22 24 49 73 95 97 94 104 100 101 98 94 94 85 76 69 63 64
42 39 40 38 21 25 18 16 9 9 11 7 19 6 8 15 30 91 94 96 97 91 96 102 100 93 90 85 80 74 67 63
15 21 32 19 39 20 11 7 18 7 10 5 12 12 7 9 60 53 84 87 91 89 101 101 102 96 92 88 83 77 71 67
12 15 11 16 36 33 22 17 15 20 10 14 22 17 13 30 61 85 81 90 93 93 102 104 98 90 92 92 86 80 72 67
31 34 30 31 31 43 26 28 22 25 17 21 20 29 20 7 13 62 73 86 91 93 101 102 95 91 91 89 89 84 77 73
31 25 27 35 35 32 42 33 16 23 6 12 21 8 22 37 26 35 75 86 97 95 96 103 98 94 94 91 90 86 82 77
11 15 19 17 15 21 24 33 15 25 19 25 12 17 35 59 68 43 74 87 96 98 96 99 98 92 95 94 88 88 83 78
10 15 8 15 17 23 24 32 25 11 30 36 35 49 68 82 77 28 65 79 91 94 91 93 93 90 90 91 90 89 86 81
7 9 21 31 18 13 15 14 12 20 21 18 35 28 7 26 30 38 73 69 80 90 87 88 91 91 89 89 90 89 89 87
9 9 9 14 24 46 15 5 38 38 15 27 37 13 22 33 65 27 64 68 75 81 82 83 85 85 89 88 90 94 93 91
18 10 17 27 33 38 9 9 36 41 45 29 11 22 55 45 31 36 19 55 76 81 85 81 79 80 84 90 96 95 94 92
10 8 14 41 22 13 12 28 39 49 59 53 26 21 35 62 25 11 24 35 78 83 86 80 80 77 79 84 84 87 88 91
11 10 9 45 36 36 38 35 48 57 58 57 51 46 18 36 24 35 22 30 45 88 83 85 82 79 79 67 73 82 86 88
17 21 18 41 46 44 37 37 40 43 50 53 46 44 35 12 31 25 12 19 17 8 84 86 83 80 73 68 72 76 82 85
6 31 35 56 53 41 37 29 37 30 35 45 48 42 46 30 12 20 20 20 18 15 9 57 74 70 67 79 81 81 84 86
5 31 21 39 49 59 57 31 35 35 37 38 39 36 35 34 22 13 19 34 31 24 22 17 22 52 50 55 64 73 77 79
16 49 48 39 40 52 63 31 39 36 36 39 41 42 31 26 21 19 20 22 22 32 36 32 30 38 48 59 60 63 67 72
Wind_Direction_850mb
238 241 233 238 243 220 221 258 280 124 350 4 204 166 202 215 203 187 192 190 191 189 197 196 197 203 208 211 214 213 212 209
244 236 243 223 222 246 233 237 252 209 188 197 195 187 226 227 246 222 189 188 188 189 195 197 196 201 207 215 217 217 214 216
270 258 230 237 239 229 215 177 215 175 253 206 189 226 179 213 248 208 182 185 183 188 193 198 194 198 205 210 214 218 219 217
249 259 272 233 226 214 222 273 236 205 256 121 146 205 267 134 38 192 184 181 182 181 182 185 189 192 199 205 212 219 221 220
294 275 260 262 227 220 201 195 246 183 240 190 111 65 49 42 336 212 181 174 177 179 178 183 189 194 197 204 209 217 221 221
272 271 285 303 218 220 204 230 247 252 217 213 147 125 14 7 323 184 176 170 174 179 182 187 195 198 200 203 211 217 218 218
283 281 300 290 291 209 217 221 223 251 170 214 179 150 153 78 316 172 165 169 176 180 184 190 195 197 199 203 206 212 217 219
299 295 297 298 297 304 217 229 239 249 58 131 108 164 104 55 317 219 167 172 180 185 188 190 194 197 200 202 204 210 216 221
276 350 321 297 258 277 277 213 203 241 169 161 170 145 111 71 271 264 174 177 183 189 193 195 196 198 201 203 206 211 218 222
297 348 265 254 305 288 290 219 217 244 152 172 170 174 171 163 208 257 188 184 189 194 195 200 201 203 204 207 208 212 219 224
307 299 304 303 293 321 335 338 279 205 163 171 147 120 185 204 264 274 210 195 197 201 201 202 205 205 206 208 210 214 220 224
335 319 271 272 320 325 354 72 356 9 185 150 156 145 169 208 244 226 205 200 200 204 205 207 209 209 208 210 214 217 221 225
264 255 282 332 344 322 48 322 337 6 13 165 157 186 186 170 155 328 288 225 207 206 209 212 212 210 211 214 220 223 223 225
243 249 269 350 27 58 312 1 4 13 17 23 40 188 159 155 178 306 19 270 208 205 212 214 213 212 214 218 226 224 225 228
209 213 59 45 51 31 12 7 24 17 13 19 30 39 102 121 144 174 327 352 213 207 212 216 214 215 217 229 226 227 227 228
232 6 35 32 28 20 6 21 22 17 10 11 7 22 32 90 132 177 263 315 357 269 216 214 219 221 232 237 230 230 233 234
200 18 343 10 2 360 348 30 32 11 11 13 8 19 27 7 27 233 334 328 323 328 31 225 225 230 237 240 239 237 237 238
327 343 331 320 356 6 5 43 50 25 7 4 2 357 8 27 38 357 315 324 322 301 288 274 265 243 242 243 242 243 243 242
296 317 319 327 4 12 1 64 52 35 27 6 359 357 349 354 7 13 328 319 313 315 308 288 290 265 254 247 243 242 244 246